Warroad, MN

6:15 PM CDT on August 20, 2017 (GMT -0500)
Warroad International-Carlson

Weather History for KRRT - September, 2013

Change the Weather History Date:

Friday, September 6, 2013

  Actual Average Record
Temperature  
Mean Temperature 74 °F -  
Max Temperature 84 °F 71 °F 91 °F (1976)
Min Temperature 64 °F 48 °F 6 °F (1997)
Cooling Degree Days 9    
Growing Degree Days 24 (Base 50)    
Moisture  
Dew Point 69 °F    
Average Humidity 82    
Maximum Humidity 94    
Minimum Humidity 66    
Precipitation  
Precipitation 0.00 in - - ()
Sea Level Pressure  
Sea Level Pressure 29.91 in    
Wind  
Wind Speed 5 mph (SW)    
Max Wind Speed 9 mph    
Max Gust Speed -    
Visibility 10 miles    
Events      
Averages and records for this station are not official NWS values.
T = Trace of Precipitation, MM = Missing Value Source: NWS Daily Summary

Daily Weather History Graph

Daily Weather History Graph

Search for Another Location

Airport or City:

Trip Planner

Search our weather history database for the weather conditions in past years. The results will help you decide how hot, cold, wet, or windy it might be!

Date:

Astronomy

Sep. 06, 2013 Rise Set
Actual Time 6:45 AM CDT 7:52 PM CDT
Civil Twilight 6:13 AM CDT 8:25 PM CDT
Nautical Twilight 5:34 AM CDT 9:03 PM CDT
Astronomical Twilight 4:52 AM CDT 9:45 PM CDT
Moon 8:09 AM CDT (9/6) 8:04 PM CDT (9/6)
Length of Visible Light 14h 11m
Length of Day
13h 07m
New Moon, 2% of the Moon is Illuminated
Sep 6
New Moon
Sep 12
First Quarter
Sep 19
Full
Sep 26
Last Quarter
Oct 4
New

Hourly Weather History & Observations

Time (CDT) Temp. Heat Index Dew Point Humidity Pressure Visibility Wind Dir Wind Speed Gust Speed Precip Events Conditions
12:14 AM 66.2 °F - 62.6 °F 88% 30.00 in 10.0 mi South 4.6 mph - N/A   Clear
12:34 AM 68.0 °F - 62.6 °F 83% 29.99 in 10.0 mi South 5.8 mph - N/A   Clear
12:54 AM 68.0 °F - 62.6 °F 83% 29.99 in 10.0 mi South 4.6 mph - N/A   Clear
1:14 AM 68.0 °F - 62.6 °F 83% 29.99 in 10.0 mi South 4.6 mph - N/A   Clear
1:34 AM 66.2 °F - 62.6 °F 88% 29.99 in 10.0 mi South 4.6 mph - N/A   Clear
1:54 AM 66.2 °F - 62.6 °F 88% 29.99 in 10.0 mi Calm Calm - N/A   Clear
2:14 AM 66.2 °F - 62.6 °F 88% 29.98 in 10.0 mi Calm Calm - N/A   Clear
2:34 AM 66.2 °F - 62.6 °F 88% 29.98 in 10.0 mi Calm Calm - N/A   Clear
2:54 AM 64.4 °F - 62.6 °F 94% 29.97 in 10.0 mi SSW 3.5 mph - N/A   Clear
3:14 AM 64.4 °F - 62.6 °F 94% 29.97 in 10.0 mi SSW 4.6 mph - N/A   Clear
3:34 AM 66.2 °F - 62.6 °F 88% 29.96 in 10.0 mi SSW 4.6 mph - N/A   Clear
3:54 AM 68.0 °F - 64.4 °F 88% 29.95 in 10.0 mi SSW 6.9 mph - N/A   Clear
4:14 AM 68.0 °F - 64.4 °F 88% 29.95 in 10.0 mi SSW 6.9 mph - N/A   Clear
4:34 AM 69.8 °F - 64.4 °F 83% 29.94 in 10.0 mi SSW 6.9 mph - N/A   Clear
4:54 AM 69.8 °F - 64.4 °F 83% 29.93 in 10.0 mi SSW 6.9 mph - N/A   Clear
5:14 AM 69.8 °F - 64.4 °F 83% 29.94 in 10.0 mi SW 8.1 mph - N/A   Clear
5:34 AM 69.8 °F - 64.4 °F 83% 29.94 in 10.0 mi SW 8.1 mph - N/A   Scattered Clouds
5:54 AM 68.0 °F - 64.4 °F 88% 29.92 in 10.0 mi SSW 5.8 mph - N/A   Clear
6:14 AM 66.2 °F - 62.6 °F 88% 29.92 in 10.0 mi SSW 4.6 mph - N/A   Clear
6:34 AM 66.2 °F - 62.6 °F 88% 29.92 in 10.0 mi SSW 6.9 mph - N/A   Clear
6:54 AM 66.2 °F - 62.6 °F 88% 29.92 in 10.0 mi SSW 6.9 mph - N/A   Clear
7:14 AM 68.0 °F - 64.4 °F 88% 29.93 in 10.0 mi SW 9.2 mph - N/A   Clear
7:34 AM 68.0 °F - 64.4 °F 88% 29.92 in 10.0 mi SSW 9.2 mph - N/A   Clear
7:54 AM 68.0 °F - 64.4 °F 88% 29.92 in 10.0 mi SSW 8.1 mph - N/A   Scattered Clouds
8:14 AM 69.8 °F - 64.4 °F 83% 29.92 in 10.0 mi SSW 6.9 mph - N/A   Scattered Clouds
8:34 AM 69.8 °F - 66.2 °F 88% 29.92 in 10.0 mi SSW 6.9 mph - N/A   Clear
8:54 AM 71.6 °F - 66.2 °F 83% 29.92 in 10.0 mi SSW 9.2 mph - N/A   Clear
9:14 AM 71.6 °F - 68.0 °F 88% 29.91 in 10.0 mi SSW 8.1 mph - N/A   Clear
9:34 AM 73.4 °F - 68.0 °F 83% 29.91 in 10.0 mi SSW 6.9 mph - N/A   Clear
9:54 AM 73.4 °F - 69.8 °F 88% 29.91 in 10.0 mi SW 9.2 mph - N/A   Clear
10:14 AM 75.2 °F - 69.8 °F 83% 29.91 in 10.0 mi SW 6.9 mph - N/A   Clear
10:34 AM 75.2 °F - 69.8 °F 83% 29.91 in 10.0 mi WSW 6.9 mph - N/A   Clear
10:54 AM 77.0 °F - 71.6 °F 83% 29.91 in 10.0 mi SW 6.9 mph - N/A   Clear
11:14 AM 78.8 °F - 71.6 °F 78% 29.90 in 10.0 mi SW 8.1 mph - N/A   Clear
11:34 AM 78.8 °F - 71.6 °F 78% 29.90 in 10.0 mi SW 6.9 mph - N/A   Clear
11:54 AM 78.8 °F - 71.6 °F 78% 29.90 in 10.0 mi SSW 4.6 mph - N/A   Clear
12:14 PM 80.6 °F 84.6 °F 71.6 °F 74% 29.89 in 10.0 mi SW 5.8 mph - N/A   Clear
12:34 PM 80.6 °F 84.6 °F 71.6 °F 74% 29.89 in 10.0 mi SW 3.5 mph - N/A   Clear
12:54 PM 82.4 °F 88.2 °F 73.4 °F 74% 29.89 in 10.0 mi West 4.6 mph - N/A   Clear
1:14 PM 82.4 °F 88.2 °F 73.4 °F 74% 29.89 in 10.0 mi SW 8.1 mph - N/A   Clear
1:34 PM 82.4 °F 88.2 °F 73.4 °F 74% 29.89 in 10.0 mi WSW 6.9 mph - N/A   Clear
1:54 PM 82.4 °F 88.2 °F 73.4 °F 74% 29.88 in 10.0 mi SW 6.9 mph - N/A   Clear
2:14 PM 84.2 °F 90.9 °F 73.4 °F 70% 29.88 in 10.0 mi WSW 6.9 mph - N/A   Clear
2:34 PM 84.2 °F 90.9 °F 73.4 °F 70% 29.88 in 10.0 mi SW 3.5 mph - N/A   Clear
2:54 PM 84.2 °F 90.9 °F 73.4 °F 70% 29.87 in 10.0 mi WSW 3.5 mph - N/A   Clear
3:13 PM 84.2 °F 90.9 °F 73.4 °F 70% 29.86 in 10.0 mi SW 3.5 mph - N/A   Clear
3:34 PM 84.2 °F 90.9 °F 73.4 °F 70% 29.86 in 10.0 mi SW 8.1 mph - N/A   Clear
3:53 PM 84.2 °F 90.9 °F 73.4 °F 70% 29.86 in 10.0 mi SSW 4.6 mph - N/A   Clear
4:14 PM 84.2 °F 90.9 °F 73.4 °F 70% 29.86 in 10.0 mi WSW 4.6 mph - N/A   Clear
4:34 PM 84.2 °F 90.9 °F 73.4 °F 70% 29.86 in 10.0 mi SW 4.6 mph - N/A   Clear
4:53 PM 84.2 °F 90.9 °F 73.4 °F 70% 29.85 in 10.0 mi WSW 5.8 mph - N/A   Clear
5:14 PM 84.2 °F 89.6 °F 71.6 °F 66% 29.85 in 10.0 mi WSW 5.8 mph - N/A   Clear
5:34 PM 84.2 °F 90.9 °F 73.4 °F 70% 29.85 in 10.0 mi Calm Calm - N/A   Clear
5:53 PM 84.2 °F 90.9 °F 73.4 °F 70% 29.85 in 10.0 mi SW 4.6 mph - N/A   Clear
6:14 PM 82.4 °F 89.5 °F 75.2 °F 79% 29.85 in 10.0 mi Calm Calm - N/A   Clear
6:34 PM 84.2 °F 92.3 °F 75.2 °F 74% 29.85 in 10.0 mi Calm Calm - N/A   Clear
6:53 PM 82.4 °F 89.5 °F 75.2 °F 79% 29.85 in 10.0 mi SW 4.6 mph - N/A   Clear
7:14 PM 82.4 °F 88.2 °F 73.4 °F 74% 29.85 in 10.0 mi WSW 3.5 mph - N/A   Clear
7:34 PM 80.6 °F 85.4 °F 73.4 °F 79% 29.85 in 10.0 mi Calm Calm - N/A   Clear
7:54 PM 80.6 °F 85.4 °F 73.4 °F 79% 29.86 in 10.0 mi WSW 3.5 mph - N/A   Clear
8:14 PM 78.8 °F - 73.4 °F 83% 29.87 in 10.0 mi West 3.5 mph - N/A   Clear
8:34 PM 78.8 °F - 71.6 °F 78% 29.87 in 10.0 mi West 3.5 mph - N/A   Clear
8:54 PM 77.0 °F - 71.6 °F 83% 29.88 in 10.0 mi Calm Calm - N/A   Clear
9:14 PM 75.2 °F - 71.6 °F 89% 29.88 in 10.0 mi Calm Calm - N/A   Clear
9:34 PM 75.2 °F - 71.6 °F 89% 29.88 in 10.0 mi Calm Calm - N/A   Clear
9:54 PM 75.2 °F - 71.6 °F 89% 29.89 in 10.0 mi NW 3.5 mph - N/A   Scattered Clouds
10:14 PM 75.2 °F - 71.6 °F 89% 29.89 in 10.0 mi WNW 3.5 mph - N/A   Scattered Clouds
10:34 PM 75.2 °F - 71.6 °F 89% 29.89 in 10.0 mi NW 5.8 mph - N/A   Scattered Clouds
10:54 PM 75.2 °F - 71.6 °F 89% 29.89 in 10.0 mi NW 5.8 mph - N/A   Clear
11:14 PM 75.2 °F - 71.6 °F 89% 29.90 in 10.0 mi NW 4.6 mph - N/A   Scattered Clouds
11:34 PM 73.4 °F - 69.8 °F 88% 29.90 in 10.0 mi NW 6.9 mph - N/A   Clear
11:54 PM 73.4 °F - 69.8 °F 88% 29.90 in 10.0 mi WNW 5.8 mph - N/A   Clear